Regional Weather Roundup
Issued by NWS Charleston, SC

Current Version | Previous Version | Graphics & Text | Print | Product List | Glossary On
Versions: 1 2 3 4 5 6 7 8 9 10 11 12 13 14 15 16 17 18 19 20 21 22 23 24 25 26 27 28 29 30 31 32 33 34 35 36 37 38 39 40 41 42 43 44 45 46 47 48 49 50
000
ASUS42 KCHS 210110
RWRCHS
REGIONAL WEATHER ROUNDUP
NATIONAL WEATHER SERVICE CHARLESTON SC
800 PM EST SAT DEC 20 2014

NOTE: "FAIR" INDICATES FEW OR NO CLOUDS BELOW 12,000 FEET WITH NO
SIGNIFICANT WEATHER AND/OR OBSTRUCTIONS TO VISIBILITY.

NOT ALL STATIONS ARE QUALITY CONTROLLED BY THE NATIONAL
WEATHER SERVICE. USE DATA WITH CAUTION...ESPECIALLY
DEWPOINT OBSERVATIONS.

SCZ027-030-031-034>040-042>050-210200-
...SOUTHEAST SOUTH CAROLINA...

CITY           SKY/WX    TMP DP  RH WIND       PRES   REMARKS
N CHARLESTON   CLOUDY    49  47  93 NE7       30.22S
WATERFRONT PRK   N/A     50 N/A N/A N13         N/A
MOUNT PLEASANT CLOUDY    48  48 100 NE7       30.22S
PINOPOLIS        N/A     48  46  93 NE8       30.15R
MONCKS CORNER    N/A     48  46  93 NE7       30.22F FOG
SUMMERVILLE    CLOUDY    48  48 100 N5        30.23S
BEAUFORT MCAS  CLOUDY    53  51  93 NE10      30.20S FOG
BEAUFORT ARPT  CLOUDY    54  52  94 NE9       30.19R
HILTON HEAD IS MOCLDY    54  52  94 N10       30.20S
WALTERBORO     CLOUDY    50 N/A N/A NE6       30.22S
ALLENDALE      CLOUDY    50  48  93 VRB3      30.21S

...SOUTHERN MIDLANDS AND PEE DEE...

CITY           SKY/WX    TMP DP  RH WIND       PRES   REMARKS
GEORGETOWN     NOT AVBL
KINGSTREE      NOT AVBL
ORANGEBURG     CLOUDY    46  43  89 NE6       30.23R
BARNWELL       CLOUDY    48  48 100 E7        30.22S
AIKEN          CLOUDY    46  46 100 NE7       30.25R FOG
MANNING        NOT AVBL
COLUMBIA       CLOUDY    48  40  73 E6        30.23S
SUMTER         NOT AVBL
FLORENCE       CLOUDY    43  39  86 NE8       30.25S
MYRTLE BEACH   NOT AVBL
N MYRTLE BEACH CLOUDY    44  41  89 NE9       30.24S

$$

GAZ063-065-086>088-099>101-113>116-118-119-134>141-150-210200-
...SOUTHEAST GEORGIA...

CITY           SKY/WX    TMP DP  RH WIND       PRES   REMARKS
SAVANNAH ARPT  CLOUDY    54  50  86 NE7       30.19S
HUNTER AAF     DRIZZLE   54  52  92 N6        30.16S
FORT STEWART   CLOUDY    54  51  89 N9        30.16R
STATESBORO     CLOUDY    52  52 100 NE5       30.19S
SYLVANIA       CLOUDY    52  52 100 NE5       30.21R
CLAXTON        CLOUDY    54  52  94 NE5       30.19S

...CSRA...CENTRAL AND FAR SOUTHEAST GEORGIA...

CITY           SKY/WX    TMP DP  RH WIND       PRES   REMARKS
THOMSON        CLOUDY    50  50 100 NE3       30.25R
AUGUSTA-BUSH   CLOUDY    49  46  90 NE7       30.22R
AUGUSTA-DANIEL CLOUDY    50  48  93 NE8       30.22R
SWAINSBORO     CLOUDY   N/A N/A N/A E5        30.19S
VIDALIA        CLOUDY    54  52  94 NE6       30.18S
EASTMAN        CLOUDY    55  55 100 NE5       30.20R
HAZLEHURST     MOCLDY    56  55  95 NE3       30.16R
ALMA           CLOUDY    54  51  90 CALM      30.16R
WAYCROSS       CLOUDY    58  55  89 E3        30.15S
JESUP          CLOUDY    57  54  88 NE3       30.17R
BAXLEY         CLOUDY    55  52  88 NE6       30.16S
BRUNSWICK      CLOUDY    55  52  88 NE6       30.17R
SAINT SIMONS   CLOUDY    57  53  86 N10       30.15S

$$

SCZ027-028-034-036>038-045-046-048>050-GAZ119-141-210200-
...LAKE AND SUPPLEMENTAL COASTAL OBSERVATIONS...

STATION/POSITION TIME  TEMP    WIND        PRES    WAVE   SWELL
                       AIR SEA DIR/SP/G            HT/PER HT/PER/DIR
                 (UTC) (F)     (DEG/KT/KT) (MB)    (FT/S) (FT/S/D)
UPR LAKE MARION  NOT AVBL
WINYAH BAY       0000   49      40/ 10     1022.0S
LAKE MURRAY      0000   46      50/  2/  6 1023.0S
ACE BASIN NERRS  0000   53      40/  3     1022.0S
FORT PULASKI     0100   54 57   30/  8/ 11 1022.3S
SAPELO ISLAND    0000   55      30/  8     1021.0S

$$

ANZ835-935-AMZ111-154-330-350-352-354-370-450-454-472-210200-
...C-MAN AND BUOY OBSERVATIONS...

STATION/POSITION TIME  TEMP    WIND        PRES    WAVE   SWELL
                       AIR SEA DIR/SP/G            HT/PER HT/PER/DIR
                 (UTC) (F)     (DEG/KT/KT) (MB)    (FT/S) (FT/S/D)
BUOY 41004       0100   62 70   40/ 17/ 21 1020.8F   4/ 6   2/11
BUOY 41008       0100   59 59   30/ 16/ 19 1020.6R   4/ 5   2/110/11
FOLLY BEACH CMAN 0000   51      30/ 17/ 19 1023.2R
CAPERS NEARSHORE 0000   52      50/ 16/ 19   N/A
FRIPP NEARSHORE  NOT AVBL


STATION/POSITION TIME  TEMP    WIND        PRES    WAVE   SWELL
                       AIR SEA DIR/SP/G            HT/PER HT/PER/DIR
                 (UTC) (F)     (DEG/KT/KT) (MB)    (FT/S) (FT/S/D)
5E ST. MARYS GA  0100      61                N/A     4/ 5
FRYING PAN BUOY  0100   56 69   60/ 16/ 19 1023.0R   5/ 6   2/ 90/ 9
BUOY 41025       0100   48                 1024.9R   3/ 7
CAPE LOOKOUT NC  0000   44      10/  9/ 11 1024.6R
BUOY 41002       0037   64 71   80/ 21/ 27 1020.3F   4/ 5   2/ 80/10
BUOY 41010       0100   73 77  170/  4/  4 1019.8S   2/11   2/120/11
ST AUGUSTINE FL  0100   62     360/ 15/ 17 1020.1S


$$



USA.gov is the U.S. government's official web portal to all federal, state and local government web resources and services.